Year,Month,Day,Hour,Minute,Value (Times are PST for temperature in C)
2015,08,19,00,00,17.80
2015,08,19,00,01,17.70
2015,08,19,00,02,17.70
2015,08,19,00,03,17.60
2015,08,19,00,04,17.50
2015,08,19,00,05,17.50
2015,08,19,00,06,17.50
2015,08,19,00,07,17.40
2015,08,19,00,08,17.40
2015,08,19,00,09,17.40
2015,08,19,00,10,17.40
2015,08,19,00,11,17.40
2015,08,19,00,12,17.40
2015,08,19,00,13,17.40
2015,08,19,00,14,17.40
2015,08,19,00,15,17.40
2015,08,19,00,16,17.40
2015,08,19,00,17,17.40
2015,08,19,00,18,17.30
2015,08,19,00,19,17.30
2015,08,19,00,20,17.30
2015,08,19,00,21,17.20
2015,08,19,00,22,17.20
2015,08,19,00,23,17.10
2015,08,19,00,24,17.00
2015,08,19,00,25,17.00
2015,08,19,00,26,17.00
2015,08,19,00,27,16.90
2015,08,19,00,28,16.90
2015,08,19,00,29,16.90
2015,08,19,00,30,16.90
2015,08,19,00,31,16.90
2015,08,19,00,32,16.90
2015,08,19,00,33,16.90
2015,08,19,00,34,16.90
2015,08,19,00,35,16.90
2015,08,19,00,36,16.90
2015,08,19,00,37,16.90
2015,08,19,00,38,16.90
2015,08,19,00,39,16.90
2015,08,19,00,40,16.90
2015,08,19,00,41,16.90
2015,08,19,00,42,16.90
2015,08,19,00,43,16.90
2015,08,19,00,44,16.90
2015,08,19,00,45,16.90
2015,08,19,00,46,16.90
2015,08,19,00,47,17.00
2015,08,19,00,48,17.00
2015,08,19,00,49,17.00
2015,08,19,00,50,17.00
2015,08,19,00,51,17.00
2015,08,19,00,52,17.00
2015,08,19,00,53,16.90
2015,08,19,00,54,16.90
2015,08,19,00,55,16.90
2015,08,19,00,56,16.90
2015,08,19,00,57,16.90
2015,08,19,00,58,16.90
2015,08,19,00,59,16.90
2015,08,19,01,00,16.90
2015,08,19,01,01,16.90
2015,08,19,01,02,16.90
2015,08,19,01,03,16.90
2015,08,19,01,04,16.90
2015,08,19,01,05,16.90
2015,08,19,01,06,16.80
2015,08,19,01,07,16.80
2015,08,19,01,08,16.80
2015,08,19,01,09,16.80
2015,08,19,01,10,16.80
2015,08,19,01,11,16.80
2015,08,19,01,12,16.70
2015,08,19,01,13,16.70
2015,08,19,01,14,16.70
2015,08,19,01,15,16.70
2015,08,19,01,16,16.70
2015,08,19,01,17,16.70
2015,08,19,01,18,16.70
2015,08,19,01,19,16.70
2015,08,19,01,20,16.70
2015,08,19,01,21,16.70
2015,08,19,01,22,16.70
2015,08,19,01,23,16.70
2015,08,19,01,24,16.70
2015,08,19,01,25,16.80
2015,08,19,01,26,16.80
2015,08,19,01,27,16.80
2015,08,19,01,28,16.80
2015,08,19,01,29,16.80
2015,08,19,01,30,16.80
2015,08,19,01,31,16.80
2015,08,19,01,32,16.80
2015,08,19,01,33,16.70
2015,08,19,01,34,16.70
2015,08,19,01,35,16.70
2015,08,19,01,36,16.70
2015,08,19,01,37,16.70
2015,08,19,01,38,16.70
2015,08,19,01,39,16.70
2015,08,19,01,40,16.70
2015,08,19,01,41,16.60
2015,08,19,01,42,16.60
2015,08,19,01,43,16.60
2015,08,19,01,44,16.60
2015,08,19,01,45,16.60
2015,08,19,01,46,16.60
2015,08,19,01,47,16.50
2015,08,19,01,48,16.50
2015,08,19,01,49,16.40
2015,08,19,01,50,16.40
2015,08,19,01,51,16.40
2015,08,19,01,52,16.40
2015,08,19,01,53,16.30
2015,08,19,01,54,16.30
2015,08,19,01,55,16.30
2015,08,19,01,56,16.30
2015,08,19,01,57,16.20
2015,08,19,01,58,16.20
2015,08,19,01,59,16.20
2015,08,19,02,00,16.20
2015,08,19,02,01,16.10
2015,08,19,02,02,16.10
2015,08,19,02,03,16.10
2015,08,19,02,04,16.10
2015,08,19,02,05,16.10
2015,08,19,02,06,16.10
2015,08,19,02,07,16.10
2015,08,19,02,08,16.10
2015,08,19,02,09,16.10
2015,08,19,02,10,16.10
2015,08,19,02,11,16.20
2015,08,19,02,12,16.20
2015,08,19,02,13,16.20
2015,08,19,02,14,16.20
2015,08,19,02,15,16.20
2015,08,19,02,16,16.20
2015,08,19,02,17,16.20
2015,08,19,02,18,16.20
2015,08,19,02,19,16.20
2015,08,19,02,20,16.20
2015,08,19,02,21,16.20
2015,08,19,02,22,16.20
2015,08,19,02,23,16.20
2015,08,19,02,24,16.10
2015,08,19,02,25,16.10
2015,08,19,02,26,16.10
2015,08,19,02,27,16.10
2015,08,19,02,28,16.10
2015,08,19,02,29,16.10
2015,08,19,02,30,16.10
2015,08,19,02,31,16.10
2015,08,19,02,32,16.10
2015,08,19,02,33,16.10
2015,08,19,02,34,16.10
2015,08,19,02,35,16.10
2015,08,19,02,36,16.10
2015,08,19,02,37,16.10
2015,08,19,02,38,16.20
2015,08,19,02,39,16.20
2015,08,19,02,40,16.20
2015,08,19,02,41,16.10
2015,08,19,02,42,16.10
2015,08,19,02,43,16.10
2015,08,19,02,44,16.10
2015,08,19,02,45,16.00
2015,08,19,02,46,16.00
2015,08,19,02,47,16.00
2015,08,19,02,48,16.00
2015,08,19,02,49,16.00
2015,08,19,02,50,15.90
2015,08,19,02,51,15.90
2015,08,19,02,52,15.90
2015,08,19,02,53,15.90
2015,08,19,02,54,15.90
2015,08,19,02,55,15.90
2015,08,19,02,56,15.90
2015,08,19,02,57,15.90
2015,08,19,02,58,15.80
2015,08,19,02,59,15.80
2015,08,19,03,00,15.80
2015,08,19,03,01,15.80
2015,08,19,03,02,15.80
2015,08,19,03,03,15.80
2015,08,19,03,04,15.80
2015,08,19,03,05,15.80
2015,08,19,03,06,15.80
2015,08,19,03,07,15.70
2015,08,19,03,08,15.70
2015,08,19,03,09,15.70
2015,08,19,03,10,15.70
2015,08,19,03,11,15.70
2015,08,19,03,12,15.60
2015,08,19,03,13,15.60
2015,08,19,03,14,15.60
2015,08,19,03,15,15.60
2015,08,19,03,16,15.60
2015,08,19,03,17,15.50
2015,08,19,03,18,15.50
2015,08,19,03,19,15.40
2015,08,19,03,20,15.40
2015,08,19,03,21,15.40
2015,08,19,03,22,15.40
2015,08,19,03,23,15.30
2015,08,19,03,24,15.30
2015,08,19,03,25,15.30
2015,08,19,03,26,15.30
2015,08,19,03,27,15.30
2015,08,19,03,28,15.30
2015,08,19,03,29,15.30
2015,08,19,03,30,15.30
2015,08,19,03,31,15.30
2015,08,19,03,32,15.30
2015,08,19,03,33,15.30
2015,08,19,03,34,15.30
2015,08,19,03,35,15.20
2015,08,19,03,36,15.20
2015,08,19,03,37,15.20
2015,08,19,03,38,15.20
2015,08,19,03,39,15.20
2015,08,19,03,40,15.10
2015,08,19,03,41,15.10
2015,08,19,03,42,15.10
2015,08,19,03,43,15.00
2015,08,19,03,44,15.00
2015,08,19,03,45,14.90
2015,08,19,03,46,14.90
2015,08,19,03,47,14.90
2015,08,19,03,48,14.80
2015,08,19,03,49,14.80
2015,08,19,03,50,14.80
2015,08,19,03,51,14.80
2015,08,19,03,52,14.80
2015,08,19,03,53,14.80
2015,08,19,03,54,14.80
2015,08,19,03,55,14.80
2015,08,19,03,56,14.80
2015,08,19,03,57,14.80
2015,08,19,03,58,14.80
2015,08,19,03,59,14.80
2015,08,19,04,00,14.80
2015,08,19,04,01,14.80
2015,08,19,04,02,14.80
2015,08,19,04,03,14.80
2015,08,19,04,04,14.80
2015,08,19,04,05,14.80
2015,08,19,04,06,14.80
2015,08,19,04,07,14.80
2015,08,19,04,08,14.80
2015,08,19,04,09,14.80
2015,08,19,04,10,14.80
2015,08,19,04,11,14.80
2015,08,19,04,12,14.80
2015,08,19,04,13,14.80
2015,08,19,04,14,14.70
2015,08,19,04,15,14.70
2015,08,19,04,16,14.70
2015,08,19,04,17,14.70
2015,08,19,04,18,14.70
2015,08,19,04,19,14.70
2015,08,19,04,20,14.70
2015,08,19,04,21,14.70
2015,08,19,04,22,14.70
2015,08,19,04,23,14.70
2015,08,19,04,24,14.70
2015,08,19,04,25,14.70
2015,08,19,04,26,14.70
2015,08,19,04,27,14.70
2015,08,19,04,28,14.70
2015,08,19,04,29,14.70
2015,08,19,04,30,14.60
2015,08,19,04,31,14.60
2015,08,19,04,32,14.60
2015,08,19,04,33,14.60
2015,08,19,04,34,14.60
2015,08,19,04,35,14.60
2015,08,19,04,36,14.60
2015,08,19,04,37,14.60
2015,08,19,04,38,14.50
2015,08,19,04,39,14.50
2015,08,19,04,40,14.50
2015,08,19,04,41,14.50
2015,08,19,04,42,14.60
2015,08,19,04,43,14.60
2015,08,19,04,44,14.50
2015,08,19,04,45,14.50
2015,08,19,04,46,14.40
2015,08,19,04,47,14.40
2015,08,19,04,48,14.30
2015,08,19,04,49,14.30
2015,08,19,04,50,14.30
2015,08,19,04,51,14.20
2015,08,19,04,52,14.20
2015,08,19,04,53,14.20
2015,08,19,04,54,14.20
2015,08,19,04,55,14.20
2015,08,19,04,56,14.20
2015,08,19,04,57,14.20
2015,08,19,04,58,14.20
2015,08,19,04,59,14.20
2015,08,19,05,00,14.10
2015,08,19,05,01,14.10
2015,08,19,05,02,14.00
2015,08,19,05,03,14.00
2015,08,19,05,04,13.90
2015,08,19,05,05,13.90
2015,08,19,05,06,13.90
2015,08,19,05,07,13.80
2015,08,19,05,08,13.80
2015,08,19,05,09,13.80
2015,08,19,05,10,13.70
2015,08,19,05,11,13.70
2015,08,19,05,12,13.70
2015,08,19,05,13,13.70
2015,08,19,05,14,13.70
2015,08,19,05,15,13.70
2015,08,19,05,16,13.70
2015,08,19,05,17,13.70
2015,08,19,05,18,13.70
2015,08,19,05,19,13.70
2015,08,19,05,20,13.70
2015,08,19,05,21,13.70
2015,08,19,05,22,13.70
2015,08,19,05,23,13.70
2015,08,19,05,24,13.70
2015,08,19,05,25,13.70
2015,08,19,05,26,13.70
2015,08,19,05,27,13.70
2015,08,19,05,28,13.70
2015,08,19,05,29,13.70
2015,08,19,05,30,13.70
2015,08,19,05,31,13.70
2015,08,19,05,32,13.70
2015,08,19,05,33,13.70
2015,08,19,05,34,13.70
2015,08,19,05,35,13.70
2015,08,19,05,36,13.70
2015,08,19,05,37,13.70
2015,08,19,05,38,13.70
2015,08,19,05,39,13.70
2015,08,19,05,40,13.70
2015,08,19,05,41,13.70
2015,08,19,05,42,13.70
2015,08,19,05,43,13.70
2015,08,19,05,44,13.70
2015,08,19,05,45,13.70
2015,08,19,05,46,13.60
2015,08,19,05,47,13.60
2015,08,19,05,48,13.60
2015,08,19,05,49,13.60
2015,08,19,05,50,13.60
2015,08,19,05,51,13.50
2015,08,19,05,52,13.50
2015,08,19,05,53,13.50
2015,08,19,05,54,13.40
2015,08,19,05,55,13.40
2015,08,19,05,56,13.40
2015,08,19,05,57,13.40
2015,08,19,05,58,13.40
2015,08,19,05,59,13.40
2015,08,19,06,00,13.40
2015,08,19,06,01,13.40
2015,08,19,06,02,13.40
2015,08,19,06,03,13.40
2015,08,19,06,04,13.40
2015,08,19,06,05,13.40
2015,08,19,06,06,13.40
2015,08,19,06,07,13.50
2015,08,19,06,08,13.50
2015,08,19,06,09,13.50
2015,08,19,06,10,13.60
2015,08,19,06,11,13.60
2015,08,19,06,12,13.60
2015,08,19,06,13,13.60
2015,08,19,06,14,13.60
2015,08,19,06,15,13.60
2015,08,19,06,16,13.70
2015,08,19,06,17,13.70
2015,08,19,06,18,13.70
2015,08,19,06,19,13.70
2015,08,19,06,20,13.70
2015,08,19,06,21,13.70
2015,08,19,06,22,13.80
2015,08,19,06,23,13.80
2015,08,19,06,24,13.70
2015,08,19,06,25,13.70
2015,08,19,06,26,13.70
2015,08,19,06,27,13.70
2015,08,19,06,28,13.60
2015,08,19,06,29,13.60
2015,08,19,06,30,13.60
2015,08,19,06,31,13.50
2015,08,19,06,32,13.50
2015,08,19,06,33,13.50
2015,08,19,06,34,13.40
2015,08,19,06,35,13.40
2015,08,19,06,36,13.40
2015,08,19,06,37,13.50
2015,08,19,06,38,13.50
2015,08,19,06,39,13.60
2015,08,19,06,40,13.60
2015,08,19,06,41,13.60
2015,08,19,06,42,13.60
2015,08,19,06,43,13.70
2015,08,19,06,44,13.70
2015,08,19,06,45,13.70
2015,08,19,06,46,13.70
2015,08,19,06,47,13.70
2015,08,19,06,48,13.70
2015,08,19,06,49,13.70
2015,08,19,06,50,13.70
2015,08,19,06,51,13.70
2015,08,19,06,52,13.80
2015,08,19,06,53,13.80
2015,08,19,06,54,13.80
2015,08,19,06,55,13.90
2015,08,19,06,56,13.90
2015,08,19,06,57,13.90
2015,08,19,06,58,13.90
2015,08,19,06,59,13.90
2015,08,19,07,00,13.90
2015,08,19,07,01,14.00
2015,08,19,07,02,14.00
2015,08,19,07,03,14.10
2015,08,19,07,04,14.10
2015,08,19,07,05,14.10
2015,08,19,07,06,14.20
2015,08,19,07,07,14.20
2015,08,19,07,08,14.30
2015,08,19,07,09,14.30
2015,08,19,07,10,14.30
2015,08,19,07,11,14.40
2015,08,19,07,12,14.40
2015,08,19,07,13,14.40
2015,08,19,07,14,14.40
2015,08,19,07,15,14.50
2015,08,19,07,16,14.50
2015,08,19,07,17,14.50
2015,08,19,07,18,14.50
2015,08,19,07,19,14.50
2015,08,19,07,20,14.50
2015,08,19,07,21,14.50
2015,08,19,07,22,14.50
2015,08,19,07,23,14.60
2015,08,19,07,24,14.60
2015,08,19,07,25,14.60
2015,08,19,07,26,14.60
2015,08,19,07,27,14.60
2015,08,19,07,28,14.70
2015,08,19,07,29,14.70
2015,08,19,07,30,14.80
2015,08,19,07,31,14.80
2015,08,19,07,32,14.80
2015,08,19,07,33,14.90
2015,08,19,07,34,15.00
2015,08,19,07,35,15.00
2015,08,19,07,36,15.10
2015,08,19,07,37,15.20
2015,08,19,07,38,15.20
2015,08,19,07,39,15.30
2015,08,19,07,40,15.40
2015,08,19,07,41,15.40
2015,08,19,07,42,15.50
2015,08,19,07,43,15.60
2015,08,19,07,44,15.70
2015,08,19,07,45,15.80
2015,08,19,07,46,15.90
2015,08,19,07,47,16.00
2015,08,19,07,48,16.10
2015,08,19,07,49,16.20
2015,08,19,07,50,16.40
2015,08,19,07,51,16.50
2015,08,19,07,52,16.60
2015,08,19,07,53,16.70
2015,08,19,07,54,16.80
2015,08,19,07,55,16.90
2015,08,19,07,56,16.90
2015,08,19,07,57,17.00
2015,08,19,07,58,17.10
2015,08,19,07,59,17.20
2015,08,19,08,00,17.30
2015,08,19,08,01,17.40
2015,08,19,08,02,17.50
2015,08,19,08,03,17.60
2015,08,19,08,04,17.60
2015,08,19,08,05,17.70
2015,08,19,08,06,17.80
2015,08,19,08,07,17.80
2015,08,19,08,08,17.90
2015,08,19,08,09,18.00
2015,08,19,08,10,18.10
2015,08,19,08,11,18.20
2015,08,19,08,12,18.30
2015,08,19,08,13,18.40
2015,08,19,08,14,18.50
2015,08,19,08,15,18.60
2015,08,19,08,16,18.70
2015,08,19,08,17,18.80
2015,08,19,08,18,19.00
2015,08,19,08,19,19.10
2015,08,19,08,20,19.20
2015,08,19,08,21,19.30
2015,08,19,08,22,19.30
2015,08,19,08,23,19.40
2015,08,19,08,24,19.40
2015,08,19,08,25,19.50
2015,08,19,08,26,19.50
2015,08,19,08,27,19.60
2015,08,19,08,28,19.60
2015,08,19,08,29,19.70
2015,08,19,08,30,19.70
2015,08,19,08,31,19.80
2015,08,19,08,32,19.80
2015,08,19,08,33,19.90
2015,08,19,08,34,19.90
2015,08,19,08,35,19.90
2015,08,19,08,36,20.00
2015,08,19,08,37,20.00
2015,08,19,08,38,20.10
2015,08,19,08,39,20.10
2015,08,19,08,40,20.10
2015,08,19,08,41,20.10
2015,08,19,08,42,20.20
2015,08,19,08,43,20.20
2015,08,19,08,44,20.30
2015,08,19,08,45,20.30
2015,08,19,08,46,20.40
2015,08,19,08,47,20.40
2015,08,19,08,48,20.50
2015,08,19,08,49,20.50
2015,08,19,08,50,20.50
2015,08,19,08,51,20.60
2015,08,19,08,52,20.60
2015,08,19,08,53,20.60
2015,08,19,08,54,20.60
2015,08,19,08,55,20.60
2015,08,19,08,56,20.60
2015,08,19,08,57,20.70
2015,08,19,08,58,20.70
2015,08,19,08,59,20.70
2015,08,19,09,00,20.70
2015,08,19,09,01,20.70
2015,08,19,09,02,20.80
2015,08,19,09,03,20.80
2015,08,19,09,04,20.80
2015,08,19,09,05,20.80
2015,08,19,09,06,20.90
2015,08,19,09,07,20.90
2015,08,19,09,08,21.00
2015,08,19,09,09,21.00
2015,08,19,09,10,21.00
2015,08,19,09,11,21.10
2015,08,19,09,12,21.20
2015,08,19,09,13,21.20
2015,08,19,09,14,21.30
2015,08,19,09,15,21.40
2015,08,19,09,16,21.40
2015,08,19,09,17,21.40
2015,08,19,09,18,21.50
2015,08,19,09,19,21.50
2015,08,19,09,20,21.60
2015,08,19,09,21,21.60
2015,08,19,09,22,21.60
2015,08,19,09,23,21.70
2015,08,19,09,24,21.70
2015,08,19,09,25,21.80
2015,08,19,09,26,21.80
2015,08,19,09,27,21.80
2015,08,19,09,28,21.80
2015,08,19,09,29,21.80
2015,08,19,09,30,21.80
2015,08,19,09,31,21.80
2015,08,19,09,32,21.80
2015,08,19,09,33,21.90
2015,08,19,09,34,21.90
2015,08,19,09,35,21.90
2015,08,19,09,36,21.90
2015,08,19,09,37,22.00
2015,08,19,09,38,22.00
2015,08,19,09,39,22.10
2015,08,19,09,40,22.10
2015,08,19,09,41,22.10
2015,08,19,09,42,22.10
2015,08,19,09,43,22.10
2015,08,19,09,44,22.10
2015,08,19,09,45,22.20
2015,08,19,09,46,22.20
2015,08,19,09,47,22.20
2015,08,19,09,48,22.30
2015,08,19,09,49,22.30
2015,08,19,09,50,22.30
2015,08,19,09,51,22.40
2015,08,19,09,52,22.40
2015,08,19,09,53,22.40
2015,08,19,09,54,22.50
2015,08,19,09,55,22.50
2015,08,19,09,56,22.40
2015,08,19,09,57,22.40
2015,08,19,09,58,22.40
2015,08,19,09,59,22.40
2015,08,19,10,00,22.50
2015,08,19,10,01,22.50
2015,08,19,10,02,22.50
2015,08,19,10,03,22.50
2015,08,19,10,04,22.50
2015,08,19,10,05,22.50
2015,08,19,10,06,22.60
2015,08,19,10,07,22.60
2015,08,19,10,08,22.60
2015,08,19,10,09,22.60
2015,08,19,10,10,22.70
2015,08,19,10,11,22.70
2015,08,19,10,12,22.70
2015,08,19,10,13,22.80
2015,08,19,10,14,22.90
2015,08,19,10,15,22.90
2015,08,19,10,16,22.90
2015,08,19,10,17,23.00
2015,08,19,10,18,23.00
2015,08,19,10,19,23.10
2015,08,19,10,20,23.10
2015,08,19,10,21,23.10
2015,08,19,10,22,23.00
2015,08,19,10,23,23.00
2015,08,19,10,24,23.00
2015,08,19,10,25,23.10
2015,08,19,10,26,23.10
2015,08,19,10,27,23.10
2015,08,19,10,28,23.00
2015,08,19,10,29,23.00
2015,08,19,10,30,23.00
2015,08,19,10,31,23.00
2015,08,19,10,32,23.00
2015,08,19,10,33,23.10
2015,08,19,10,34,23.20
2015,08,19,10,35,23.20
2015,08,19,10,36,23.20
2015,08,19,10,37,23.20
2015,08,19,10,38,23.30
2015,08,19,10,39,23.30
2015,08,19,10,40,23.30
2015,08,19,10,41,23.40
2015,08,19,10,42,23.40
2015,08,19,10,43,23.50
2015,08,19,10,44,23.50
2015,08,19,10,45,23.50
2015,08,19,10,46,23.40
2015,08,19,10,47,23.40
2015,08,19,10,48,23.40
2015,08,19,10,49,23.50
2015,08,19,10,50,23.40
2015,08,19,10,51,23.40
2015,08,19,10,52,23.40
2015,08,19,10,53,23.40
2015,08,19,10,54,23.40
2015,08,19,10,55,23.30
2015,08,19,10,56,23.20
2015,08,19,10,57,23.10
2015,08,19,10,58,23.00
2015,08,19,10,59,23.00
2015,08,19,11,00,22.90
2015,08,19,11,01,22.90
2015,08,19,11,02,22.90
2015,08,19,11,03,22.90
2015,08,19,11,04,22.90
2015,08,19,11,05,23.00
2015,08,19,11,06,23.00
2015,08,19,11,07,23.10
2015,08,19,11,08,23.10
2015,08,19,11,09,23.10
2015,08,19,11,10,23.10
2015,08,19,11,11,23.10
2015,08,19,11,12,23.00
2015,08,19,11,13,23.00
2015,08,19,11,14,22.90
2015,08,19,11,15,23.00
2015,08,19,11,16,23.00
2015,08,19,11,17,23.10
2015,08,19,11,18,23.20
2015,08,19,11,19,23.20
2015,08,19,11,20,23.20
2015,08,19,11,21,23.20
2015,08,19,11,22,23.10
2015,08,19,11,23,23.20
2015,08,19,11,24,23.20
2015,08,19,11,25,23.20
2015,08,19,11,26,23.20
2015,08,19,11,27,23.20
2015,08,19,11,28,23.20
2015,08,19,11,29,23.20
2015,08,19,11,30,23.20
2015,08,19,11,31,23.20
2015,08,19,11,32,23.20
2015,08,19,11,33,23.20
2015,08,19,11,34,23.20
2015,08,19,11,35,23.20
2015,08,19,11,36,23.20
2015,08,19,11,37,23.20
2015,08,19,11,38,23.10
2015,08,19,11,39,23.10
2015,08,19,11,40,23.00
2015,08,19,11,41,23.10
2015,08,19,11,42,23.10
2015,08,19,11,43,23.10
2015,08,19,11,44,23.10
2015,08,19,11,45,23.10
2015,08,19,11,46,23.10
2015,08,19,11,47,23.10
2015,08,19,11,48,23.10
2015,08,19,11,49,23.20
2015,08,19,11,50,23.20
2015,08,19,11,51,23.20
2015,08,19,11,52,23.20
2015,08,19,11,53,23.30
2015,08,19,11,54,23.30
2015,08,19,11,55,23.30
2015,08,19,11,56,23.40
2015,08,19,11,57,23.40
2015,08,19,11,58,23.50
2015,08,19,11,59,23.60
2015,08,19,12,00,23.60
2015,08,19,12,01,23.60
2015,08,19,12,02,23.70
2015,08,19,12,03,23.80
2015,08,19,12,04,23.80
2015,08,19,12,05,23.90
2015,08,19,12,06,23.90
2015,08,19,12,07,23.90
2015,08,19,12,08,23.90
2015,08,19,12,09,23.90
2015,08,19,12,10,24.00
2015,08,19,12,11,24.00
2015,08,19,12,12,24.10
2015,08,19,12,13,24.10
2015,08,19,12,14,24.20
2015,08,19,12,15,24.20
2015,08,19,12,16,24.10
2015,08,19,12,17,24.10
2015,08,19,12,18,24.10
2015,08,19,12,19,24.10
2015,08,19,12,20,24.10
2015,08,19,12,21,24.00
2015,08,19,12,22,24.00
2015,08,19,12,23,24.00
2015,08,19,12,24,24.00
2015,08,19,12,25,24.00
2015,08,19,12,26,24.10
2015,08,19,12,27,24.10
2015,08,19,12,28,24.10
2015,08,19,12,29,24.10
2015,08,19,12,30,24.10
2015,08,19,12,31,24.10
2015,08,19,12,32,24.20
2015,08,19,12,33,24.10
2015,08,19,12,34,24.10
2015,08,19,12,35,24.10
2015,08,19,12,36,24.10
2015,08,19,12,37,24.00
2015,08,19,12,38,24.00
2015,08,19,12,39,23.90
2015,08,19,12,40,23.90
2015,08,19,12,41,24.00
2015,08,19,12,42,24.10
2015,08,19,12,43,24.10
2015,08,19,12,44,24.10
2015,08,19,12,45,24.00
2015,08,19,12,46,23.90
2015,08,19,12,47,23.90
2015,08,19,12,48,24.00
2015,08,19,12,49,24.00
2015,08,19,12,50,24.10
2015,08,19,12,51,24.10
2015,08,19,12,52,24.10
2015,08,19,12,53,24.10
2015,08,19,12,54,24.10
2015,08,19,12,55,24.10
2015,08,19,12,56,24.20
2015,08,19,12,57,24.20
2015,08,19,12,58,24.10
2015,08,19,12,59,24.10
2015,08,19,13,00,24.00
2015,08,19,13,01,24.00
2015,08,19,13,02,24.00
2015,08,19,13,03,24.10
2015,08,19,13,04,24.20
2015,08,19,13,05,24.20
2015,08,19,13,06,24.10
2015,08,19,13,07,24.10
2015,08,19,13,08,24.10
2015,08,19,13,09,24.00
2015,08,19,13,10,23.90
2015,08,19,13,11,23.90
2015,08,19,13,12,23.90
2015,08,19,13,13,23.90
2015,08,19,13,14,23.90
2015,08,19,13,15,23.80
2015,08,19,13,16,23.70
2015,08,19,13,17,23.70
2015,08,19,13,18,23.60
2015,08,19,13,19,23.60
2015,08,19,13,20,23.60
2015,08,19,13,21,23.70
2015,08,19,13,22,23.70
2015,08,19,13,23,23.70
2015,08,19,13,24,23.80
2015,08,19,13,25,23.70
2015,08,19,13,26,23.70
2015,08,19,13,27,23.70
2015,08,19,13,28,23.60
2015,08,19,13,29,23.60
2015,08,19,13,30,23.60
2015,08,19,13,31,23.60
2015,08,19,13,32,23.60
2015,08,19,13,33,23.50
2015,08,19,13,34,23.50
2015,08,19,13,35,23.40
2015,08,19,13,36,23.30
2015,08,19,13,37,23.30
2015,08,19,13,38,23.30
2015,08,19,13,39,23.20
2015,08,19,13,40,23.30
2015,08,19,13,41,23.30
2015,08,19,13,42,23.30
2015,08,19,13,43,23.30
2015,08,19,13,44,23.30
2015,08,19,13,45,23.30
2015,08,19,13,46,23.20
2015,08,19,13,47,23.20
2015,08,19,13,48,23.20
2015,08,19,13,49,23.10
2015,08,19,13,50,23.10
2015,08,19,13,51,23.10
2015,08,19,13,52,23.10
2015,08,19,13,53,23.10
2015,08,19,13,54,23.10
2015,08,19,13,55,23.10
2015,08,19,13,56,23.10
2015,08,19,13,57,23.10
2015,08,19,13,58,23.10
2015,08,19,13,59,23.20
2015,08,19,14,00,23.20
2015,08,19,14,01,23.20
2015,08,19,14,02,23.20
2015,08,19,14,03,23.20
2015,08,19,14,04,23.10
2015,08,19,14,05,23.10
2015,08,19,14,06,23.10
2015,08,19,14,07,23.10
2015,08,19,14,08,23.20
2015,08,19,14,09,23.20
2015,08,19,14,10,23.20
2015,08,19,14,11,23.20
2015,08,19,14,12,23.20
2015,08,19,14,13,23.10
2015,08,19,14,14,23.10
2015,08,19,14,15,23.10
2015,08,19,14,16,23.10
2015,08,19,14,17,23.10
2015,08,19,14,18,23.10
2015,08,19,14,19,23.10
2015,08,19,14,20,23.20
2015,08,19,14,21,23.30
2015,08,19,14,22,23.30
2015,08,19,14,23,23.30
2015,08,19,14,24,23.30
2015,08,19,14,25,23.30
2015,08,19,14,26,23.20
2015,08,19,14,27,23.20
2015,08,19,14,28,23.10
2015,08,19,14,29,23.10
2015,08,19,14,30,23.10
2015,08,19,14,31,23.10
2015,08,19,14,32,23.10
2015,08,19,14,33,23.10
2015,08,19,14,34,23.00
2015,08,19,14,35,22.90
2015,08,19,14,36,22.80
2015,08,19,14,37,22.80
2015,08,19,14,38,22.90
2015,08,19,14,39,22.80
2015,08,19,14,40,22.80
2015,08,19,14,41,22.90
2015,08,19,14,42,23.00
2015,08,19,14,43,23.10
2015,08,19,14,44,23.10
2015,08,19,14,45,23.10
2015,08,19,14,46,23.10
2015,08,19,14,47,23.10
2015,08,19,14,48,23.20
2015,08,19,14,49,23.20
2015,08,19,14,50,23.30
2015,08,19,14,51,23.40
2015,08,19,14,52,23.50
2015,08,19,14,53,23.60
2015,08,19,14,54,23.70
2015,08,19,14,55,23.60
2015,08,19,14,56,23.60
2015,08,19,14,57,23.50
2015,08,19,14,58,23.50
2015,08,19,14,59,23.40
2015,08,19,15,00,23.50
2015,08,19,15,01,23.50
2015,08,19,15,02,23.60
2015,08,19,15,03,23.50
2015,08,19,15,04,23.50
2015,08,19,15,05,23.50
2015,08,19,15,06,23.60
2015,08,19,15,07,23.70
2015,08,19,15,08,23.70
2015,08,19,15,09,23.70
2015,08,19,15,10,23.70
2015,08,19,15,11,23.70
2015,08,19,15,12,23.70
2015,08,19,15,13,23.70
2015,08,19,15,14,23.70
2015,08,19,15,15,23.70
2015,08,19,15,16,23.60
2015,08,19,15,17,23.60
2015,08,19,15,18,23.60
2015,08,19,15,19,23.50
2015,08,19,15,20,23.50
2015,08,19,15,21,23.50
2015,08,19,15,22,23.30
2015,08,19,15,23,23.20
2015,08,19,15,24,23.00
2015,08,19,15,25,22.80
2015,08,19,15,26,22.60
2015,08,19,15,27,22.40
2015,08,19,15,28,22.30
2015,08,19,15,29,22.20
2015,08,19,15,30,22.20
2015,08,19,15,31,22.10
2015,08,19,15,32,22.10
2015,08,19,15,33,21.90
2015,08,19,15,34,21.80
2015,08,19,15,35,21.80
2015,08,19,15,36,21.80
2015,08,19,15,37,21.80
2015,08,19,15,38,21.70
2015,08,19,15,39,21.60
2015,08,19,15,40,21.40
2015,08,19,15,41,21.10
2015,08,19,15,42,20.80
2015,08,19,15,43,20.50
2015,08,19,15,44,20.30
2015,08,19,15,45,20.20
2015,08,19,15,46,20.10
2015,08,19,15,47,20.10
2015,08,19,15,48,20.00
2015,08,19,15,49,20.00
2015,08,19,15,50,19.90
2015,08,19,15,51,19.90
2015,08,19,15,52,20.00
2015,08,19,15,53,20.10
2015,08,19,15,54,20.20
2015,08,19,15,55,20.40
2015,08,19,15,56,20.50
2015,08,19,15,57,20.70
2015,08,19,15,58,20.90
2015,08,19,15,59,21.10
2015,08,19,16,00,21.20
2015,08,19,16,01,21.50
2015,08,19,16,02,21.70
2015,08,19,16,03,21.90
2015,08,19,16,04,22.20
2015,08,19,16,05,22.50
2015,08,19,16,06,22.80
2015,08,19,16,07,23.10
2015,08,19,16,08,23.40
2015,08,19,16,09,23.90
2015,08,19,16,10,24.30
2015,08,19,16,11,24.80
2015,08,19,16,12,25.30
2015,08,19,16,13,25.80
2015,08,19,16,14,26.40
2015,08,19,16,15,26.80
2015,08,19,16,16,27.20
2015,08,19,16,17,27.50
2015,08,19,16,18,27.70
2015,08,19,16,19,27.90
2015,08,19,16,20,28.00
2015,08,19,16,21,28.00
2015,08,19,16,22,28.10
2015,08,19,16,23,28.10
2015,08,19,16,24,28.20
2015,08,19,16,25,28.10
2015,08,19,16,26,28.10
2015,08,19,16,27,28.10
2015,08,19,16,28,28.20
2015,08,19,16,29,28.20
2015,08,19,16,30,28.30
2015,08,19,16,31,28.30
2015,08,19,16,32,28.30
2015,08,19,16,33,28.20
2015,08,19,16,34,28.20
2015,08,19,16,35,28.10
2015,08,19,16,36,27.90
2015,08,19,16,37,27.80
2015,08,19,16,38,27.60
2015,08,19,16,39,27.50
2015,08,19,16,40,27.40
2015,08,19,16,41,27.30
2015,08,19,16,42,27.20
2015,08,19,16,43,27.20
2015,08,19,16,44,27.20
2015,08,19,16,45,27.00
2015,08,19,16,46,26.90
2015,08,19,16,47,26.80
2015,08,19,16,48,26.80
2015,08,19,16,49,26.60
2015,08,19,16,50,26.50
2015,08,19,16,51,26.40
2015,08,19,16,52,26.20
2015,08,19,16,53,26.10
2015,08,19,16,54,26.00
2015,08,19,16,55,25.90
2015,08,19,16,56,25.90
2015,08,19,16,57,25.80
2015,08,19,16,58,25.70
2015,08,19,16,59,25.70
2015,08,19,17,00,25.60
2015,08,19,17,01,25.50
2015,08,19,17,02,25.40
2015,08,19,17,03,25.30
2015,08,19,17,04,25.30
2015,08,19,17,05,25.20
2015,08,19,17,06,25.10
2015,08,19,17,07,25.10
2015,08,19,17,08,25.10
2015,08,19,17,09,25.00
2015,08,19,17,10,25.00
2015,08,19,17,11,24.90
2015,08,19,17,12,24.90
2015,08,19,17,13,24.90
2015,08,19,17,14,24.90
2015,08,19,17,15,24.80
2015,08,19,17,16,24.80
2015,08,19,17,17,24.80
2015,08,19,17,18,24.70
2015,08,19,17,19,24.60